www.pogodaiklimat.ru
ПОГОДА в Сандакане
Время
(UTC), дата
03 25.10
06 25.10
09 25.10
12 25.10
15 25.10
18 25.10
21 25.10
00 26.10
03 26.10
06 26.10
09 26.10
12 26.10
15 26.10
18 26.10
21 26.10
00 27.10
03 27.10
06 27.10
09 27.10
12 27.10
15 27.10
18 27.10
21 27.10
00 28.10
03 28.10
06 28.10
09 28.10
12 28.10
15 28.10
18 28.10
21 28.10
00 29.10
03 29.10
06 29.10
09 29.10
12 29.10
15 29.10
18 29.10
21 29.10
00 30.10
03 30.10
06 30.10
09 30.10
12 30.10
15 30.10
18 30.10
21 30.10
00 31.10
03 31.10
06 31.10
09 31.10
12 31.10
15 31.10
18 31.10
21 31.10
Ветер
(напр.,м/с)
Видим. Явления Облачность Т
(С)
Тd
(С)
f
(%)
Тe
(С)
Тes
(С)
Комфортность P
(гПа)
Po
(гПа)
Тmin
(С)
Tmax
(С)
R
(мм)
R24
(мм)
S
(см)
СВ 2 12 км мгла 10/5 450 м
[Cu Sc Ac trans Cs]
+29.4 +25.4 79 +43 +48 опасность
перегрева
1010.3 1009.1
СВ 3 12 км мгла 10/4 450 м
[Cu Sc Ac trans Cs]
+30.2 +26.2 79 +46 +49 опасность
перегрева
1007.6 1006.4
С 2 12 км осадки на расстоянии 9/4 480 м
[Cu Sc Ac lent Ci sp]
+28.4 +25.2 83 +41 +42 опасность
перегрева
1007.3 1006.1
ЮЗ 1 12 км гроза без осадков 9/5 450 м
[Cb cap Ac trans Ci sp]
+26.3 +23.9 87 +36 +36 очень
душно
1008.8 1007.6 +30.5
штиль 0 10 км гроза, ливневой дождь 9/4 270 м
[Cb cap Ac trans Ci sp]
+25.2 +23.9 93 +35 +35 очень
душно
1009.9 1008.7
Ю 1 14 км {гроза, дождь} 9/4 450 м
[Cu Sc Ac trans Ci sp]
+24.7 +23.8 95 +34 +34 очень
душно
1007.1 1005.9 0.2
штиль 0 10 км дымка 9/4 450 м
[Cu Sc Ac trans Ci sp]
+24.4 +23.6 95 +33 +33 очень
душно
1007.5 1006.3
Ю 1 9000 м мгла {гроза} 9/5 600 м
[Cu Sc Ac trans Ci sp]
+25.6 +23.8 90 +35 +36 очень
душно
1009.5 1008.3 +24.3 0.2 0.2
З 2 12 км мгла 9/5 450 м
[Cu Sc Ac trans Cs]
+28.7 +24.3 77 +40 +46 очень
душно
1008.8 1007.6
Ю 2 13 км мгла 10/4 480 м
[Cu Sc Ac lent Cs]
+29.3 +24.5 75 +41 +46 опасность
перегрева
1006.0 1004.8
З 2 12 км мгла 10/3 480 м
[Cu Sc Ac lent Cs]
+28.6 +23.9 76 +40 +40 очень
душно
1005.4 1004.2
штиль 0 14 км 9/1 480 м
[Cu Sc Ac trans Cs]
+26.9 +24.4 86 +38 +38 очень
душно
1007.8 1006.6 +29.5
ЮЗ 3 14 км 9/3 480 м
[Cu Sc Ac lent Ci sp]
+27.7 +21.7 70 +36 +36 очень
душно
1007.9 1006.7
ЮЗ 1 14 км 9/3 480 м
[Cu Sc Ac lent Ci sp]
+26.7 +24.4 87 +37 +37 очень
душно
1006.2 1005.0
Ю 2 14 км 9/3 480 м
[Cu Sc Ac lent Ci sp]
+26.1 +22.0 78 +34 +34 очень
душно
1006.0 1004.8
Ю 3 12 км мгла 9/1 <50 м
[Cu Sc Ac lent Ci sp]
+28.4 +23.1 73 +38 +40 очень
душно
1008.0 1006.8 +25.6
Ю 3 12 км мгла 9/1 480 м
[Cu Sc Ac lent Ci sp]
+30.9 +24.6 69 +44 +51 опасность
перегрева
1008.4 1007.2
ЮЗ 5 12 км мгла 9/3 480 м
[Cu Sc Ac lent Cs]
+31.7 +22.4 58 +41 +45 опасность
перегрева
1006.2 1005.1
ЮЗ 3 13 км мгла 9/3 480 м
[Cu Sc Ac lent Cs]
+30.8 +21.7 58 +39 +39 очень
душно
1006.3 1005.1
ЮВ 2 14 км 9/3 480 м
[Cu Sc Ac lent Cs]
+28.6 +25.0 81 +41 +41 опасность
перегрева
1009.2 1008.0 +32.2
ЮВ 1 14 км 9/1 480 м
[Cu Sc Ac trans Cs]
+27.7 +25.1 86 +40 +40 очень
душно
1010.2 1009.0
Ю 2 14 км 9/4 480 м
[Cu Sc Ac lent Cs]
+27.4 +24.7 85 +39 +39 очень
душно
1009.5 1008.3
Ю 2 14 км 9/3 480 м
[Cu Sc Ac trans Cs]
+27.0 +25.1 89 +39 +39 очень
душно
1009.4 1008.2
Ю 2 12 км мгла 9/3 1500 м
[Cu Sc Ac lent Ci sp]
+29.6 +25.4 78 +43 +45 опасность
перегрева
1011.5 1010.3 +26.8
Ю 2 13 км мгла 9/4 480 м
[Cu Sc Ac lent Cs]
+31.6 +23.9 64 +43 +50 опасность
перегрева
1011.0 1009.8
СВ 3 13 км мгла 9/4 450 м
[Cu Sc Ac lent Cs]
+30.9 +26.4 77 +47 +52 опасность
перегрева
1008.4 1007.2
В 3 13 км мгла 9/4 450 м
[Cb cap Ac lent Ci sp]
+29.4 +25.9 81 +44 +44 опасность
перегрева
1008.5 1007.3
В 2 14 км в посл. час гроза 9/4 450 м
[Cu Sc Ac lent Ci sp]
+28.5 +25.2 82 +41 +41 опасность
перегрева
1011.0 1009.8 +33.0
ЮВ 2 14 км зарница 9/5 450 м
[Cb cap Ac lent Ci sp]
+28.4 +25.5 84 +42 +42 опасность
перегрева
1011.9 1010.7
В 1 14 км гроза без осадков 9/5 450 м
[Cb cap Ac lent Ci sp]
+27.0 +24.7 87 +38 +38 очень
душно
1011.0 1009.8
ЮЗ 2 9000 м гроза, ливневой дождь 10/5 240 м
[Cb cap As trans Cs]
+24.5 +24.0 97 +34 +34 очень
душно
1011.1 1009.9
Ю 1 10 км слаб. дождь {гроза} 10/5 300 м
[Frnb As trans Cs]
+24.3 +23.9 98 +33 +34 очень
душно
1013.5 1012.3 +24.1 8 7.8
Ю 2 13 км осадки на расстоянии 9/3 450 м
[Cu Sc Ac lent Cs]
+28.1 +25.0 83 +40 +48 очень
душно
1012.7 1011.5
В 2 14 км {дождь} 9/3 450 м
[Cu Sc Ac lent Cs]
+30.0 +24.4 72 +42 +49 опасность
перегрева
1010.6 1009.4 0.4
В 2 14 км 9/3 450 м
[Cu Sc Ac trans Ci sp]
+29.6 +23.8 71 +41 +41 опасность
перегрева
1009.7 1008.5
штиль 0 14 км 9/3 480 м
[Cu Sc Ac trans Ci sp]
+26.7 +24.5 88 +38 +38 очень
душно
1011.5 1010.3 +30.6
штиль 0 14 км 9/3 480 м
[Cu Sc Ac trans Ci sp]
+25.8 +24.6 93 +36 +36 очень
душно
1012.0 1010.8
З 2 8000 м дымка 9/3 480 м
[Cu Sc Ac lent Ci sp]
+25.0 +24.2 95 +34 +34 очень
душно
1010.5 1009.3
З 2 8000 м дымка 9/3 480 м
[Cu Sc Ac lent Ci sp]
+25.1 +24.3 95 +35 +35 очень
душно
1009.8 1008.6
З 2 12 км мгла 9/3 1500 м
[Cu Sc Ac trans Ci sp]
+27.3 +25.6 90 +40 +42 очень
душно
1011.3 1010.1 +24.3 4 3.6
С 3 12 км мгла 9/4 450 м
[Cu Sc Ac trans Ci sp]
+30.3 +25.3 75 +44 +50 опасность
перегрева
1010.6 1009.4
С 5 12 км мгла 9/4 450 м
[Cu Sc Ac trans Ci sp]
+31.2 +24.8 69 +44 +47 опасность
перегрева
1008.4 1007.2
С 5 12 км мгла 9/1 480 м
[Cb cap Ac trans Cs]
+29.0 +24.5 77 +41 +41 опасность
перегрева
1007.7 1006.5
СЗ 2 14 км 9/3 480 м
[Cu Sc Ac trans Ci sp]
+27.1 +24.4 85 +38 +38 очень
душно
1008.6 1007.4 +31.6
З 2 14 км 9/3 480 м
[Cu Sc Ac trans Ci sp]
+26.4 +24.7 90 +37 +37 очень
душно
1009.5 1008.3
СЗ 3 7000 м слаб. дождь 9/4 270 м
[Frnb Ac trans Ci sp]
+25.7 +25.2 97 +37 +37 очень
душно
1008.7 1007.5 7
З 2 10 км дымка {дождь} 9/3 450 м
[Cu Sc Ac trans Ci sp]
+25.2 +24.6 96 +35 +35 очень
душно
1008.1 1006.9
ЮЗ 2 4000 м дождь 10/5 210 м
[Cu Sc Ac lent Cs]
+24.1 +23.8 98 +33 +34 очень
душно
1010.9 1009.7 +23.7 14 13.8
ЮЗ 2 8000 м слаб. дождь 10/5 240 м
[Cu Sc Ac lent Cs]
+25.0 +24.2 95 +34 +39 очень
душно
1010.0 1008.8
З 2 10 км слаб. ливневой дождь, в посл. час гроза 10/5 400 м
[Cu Sc Ac lent Cs]
+26.3 +25.0 93 +38 +42 очень
душно
1007.9 1006.7 3
З 3 10 км слаб. дождь 10/5 240 м
[Cu Sc Ac As Cs]
+24.8 +23.7 94 +34 +34 очень
душно
1006.9 1005.7
З 2 10 км слаб. дождь 10/5 240 м
[Cu Sc As trans Cs]
+24.4 +24.0 98 +34 +34 очень
душно
1009.0 1007.8 +27.1 0.8
ЮЗ 1 9000 м дымка {дождь} 9/3 480 м
[Cu Sc Ac lent Cs]
+24.1 +23.7 98 +33 +33 очень
душно
1009.2 1008.0
ЮЗ 1 14 км 9/1 480 м
[Cu Sc Ac lent Cs]
+23.7 +23.3 98 +32 +32 очень
душно
1008.0 1006.8 0.0
ЮЗ 2 14 км 9/1 480 м
[Cu Sc Ac trans Ci sp]
+23.3 +22.5 95 +32 +32 очень
душно
1007.7 1006.5
Местоположение метеостанции Сандакан (Малайзия): широта 5.90 долгота 118.06 высота над уровнем моря 13 м.
В архиве по умолчанию представлена погода в Сандакане за последнюю неделю. Архивные данные за месяц целиком и за предыдущие месяцы, начиная с января 2011 года, Вы можете получить, выбрав интересующий диапазон дат из раскрывающегося списка и нажав кнопку "Найти!".
*Определитесь, кто Вы:
Внимание! Время в таблицах - всемирное. Для получения местного времени необходимо прибавить поправку, которая равна 8 ч.
Смотрите также архив погоды в соседних городах и на ближайших метеорологических станциях:
Партнеры нашего сайта:      
Пояснения к столбцам:
  • Ветер - указаны скорость ветра в м/с - средняя за 10 мин, порывы в срок и между сроками (в фигурных скобках) и направление, откуда дует ветер: С - северный,
  • СВ - северо-восточный, В - восточный, ЮВ - юго-восточный, Ю - южный, ЮЗ - юго-западный, З - западный, СЗ - северо-западный.
  • Видимость - горизонтальная дальность видимости в метрах или километрах. При видимости от 1 до 10 км при отсутствии осадков обычно наблюдается дымка, при ухудшении видимости до 1 км и менее - туман. В сухую погоду видимость может ухудшаться дымом, пылью или мглою.
  • Явления - указаны атмосферные явления, наблюдавшиеся в срок или в последний час перед сроком; фигурными скобками обозначены явления, наблюдавшиеся между сроками (за 1-3 часа до срока); квадратными скобками обозначены град или гололедные отложения с указанием их диаметра в мм.
  • Облачность - указаны через наклонную черту общая и нижняя облачность в баллах и высота нижней границы облаков в метрах; квадратными скобками обозначены формы облаков: Ci - перистые, Cs - перисто-слоистые, Cc - перисто-кучевые, Ac - высококучевые, As - высокослоистые, Sc - слоисто-кучевые, Ns - слоисто-дождевые, Cu - кучевые, Cb - кучево-дождевые. Подробнее классификацию облаков см. в Атласе облаков (PDF).
  • T - Температура воздуха - температура, измеренная на высоте 2 м над землей.
  • Td - Температура точки росы - температура, при понижении до которой содержащийся в воздухе водяной пар достигнет насыщения.
  • f - Относительная влажность воздуха - влажноcть воздуха, измеренная на высоте 2 м над землей.
  • Te - Эффективная температура - температура, которую ощущает одетый по сезону человек в тени. Характеристика душности погоды. При расчете учитывается влияние влажности воздуха и скорости ветра на теплоощущения человека.
  • Tes - Эффективная температура на солнце - температура, которую ощущает человек, с поправкой на солнечный нагрев. Характеристика знойности погоды. Зависит от высоты солнца над горизонтом, облачности и скорости ветра. Ночью, в пасмурную погоду, а также при ветре 12 м/с и более поправка равна нулю.
  • P - Атмосферное давление - приведенное к уровню моря атмосферное давление.
  • Po - Атмосферное давление - измеренное на уровне метеостанции атмосферное давление.
  • Tmin - Минимальная температура - минимум температуры воздуха на высоте 2 м над землей.
  • Tmax - Максимальная температура - максимум температуры воздуха на высоте 2 м над землей.
  • R - Количество осадков - Количество выпавших осадков за период времени, мм. При наведении курсора мыши на число - период времени, за который выпало указанное количество осадков.
  • R24 - Количество осадков - Количество выпавших осадков за 24 часа, мм.
  • S - Снежный покров - Высота снежного покрова, см. При наведении курсора мыши на число - состояние снежного покрова и степень покрытия местности в баллах.